Tracking 29493 objects as of 8-Sep-2024
HD Live streaming from Space Station
objects crossing your sky now

STARLINK-31835

Track STARLINK-31835 now!
10-day predictions
STARLINK-31835 is classified as:


NORAD ID: 59772
Int'l Code: 2024-091V
Perigee: 481.7 km
Apogee: 483.1 km
Inclination: 53.2 °
Period: 94.1 minutes
Semi major axis: 6853 km
RCS: Unknown
Launch date: May 14, 2024
Source: United States (US)
Launch site: AIR FORCE WESTERN TEST RANGE (AFWTR)
Your satellite tracking list
Your tracking list is empty




NASA's NSSDC Master Catalog

Two Line Element Set (TLE):
1 59772U 24091V   24252.15109902  .00000251  00000-0  20595-4 0  9991
2 59772  53.1597  50.1602 0001000 106.1991 253.9120 15.30191256 18930
Source of the keplerian elements: AFSPC